SCP
0 0 0 0 0 0 0 0 0 0 0 0 0 0 0 0 0 0 0 0 0 0 0 0 0 0 0 0 0 0 0 0 0 0 0 0 0 0 0 0 2 2 2 1 1
0 0 0 0 0 0 0 0 0 0 0 0 0 0 0 0 0 0 0 0 0 0 0 0 0 0 0 0 0 0 0 0 0 0 0 0 0 0 0 0 2 2 2 1 2
0 0 0 0 0 0 0 0 0 0 0 0 0 0 0 0 -0 -0 0 -0 0 0 0 0 0 0 0 0 0 0 0 0 0 0 0 0 0 0 0 0 1 1 1 0 1
0 0 0 0 0 0 0 0 0 0 0 0 0 0 0 0 0 0 0 0 0 0 0 0 0 0 0 0 0 0 0 0 0 0 0 0 -0 0 -0 0 2 0 0 0 0
0 0 0 0 0 0 0 0 0 0 0 0 -0 -0 0 0 0 0 0 0 -0 0 0 0 0 0 0 0 0 0 0 0 0 0 0 0 0 0 0 0 0 1 0 0 -0
0 0 0 0 0 0 0 0 0 0 0 -0 -0 0 0 0 0 0 0 0 0 0 0 0 0 0 0 0 0 0 0 0 0 0 0 0 0 0 0 0 1 1 1 0 0
0 0 0 0 0 0 0 0 0 0 0 0 0 0 0 0 0 -0 0 0 0 0 0 0 0 0 0 0 0 0 0 0 0 0 0 0 0 0 0 0 1 1 1 4 3
0 0 0 0 0 0 0 0 -0 -0 0 0 0 0 0 0 0 0 0 0 0 0 0 0 0 0 0 0 0 0 0 0 0 0 0 0 0 0 0 0 0 0 2 2 1
0 0 0 0 0 0 0 -0 -0 -0 0 0 0 0 0 0 0 0 -0 0 0 0 0 0 0 0 0 0 0 0 0 0 0 0 0 0 0 0 0 0 0 0 0 1 0
0 0 0 0 0 0 -0 -0 -0 0 0 0 0 0 0 0 0 0 0 -0 0 0 0 0 0 0 0 0 0 0 0 0 0 0 0 0 0 0 0 0 0 0 0 0 1
0 0 0 0 0 0 -0 -0 -0 0 0 0 0 0 -0 -0 -0 0 0 0 0 0 0 0 0 0 0 0 0 0 0 0 0 0 0 0 0 0 0 0 0 0 0 0 1
0 0 -0 0 0 0 0 0 0 0 0 0 0 0 0 0 0 -0 0 0 0 0 0 0 0 0 0 0 0 0 0 0 0 0 0 0 0 0 0 0 0 0 0 0 1
0 0 -0 -0 0 0 0 0 0 0 0 0 0 0 0 0 0 0 -0 0 0 0 0 0 0 0 0 0 0 0 0 0 0 0 0 0 0 0 0 0 0 0 0 0 1
0 0 -0 -0 0 0 0 0 0 0 0 0 0 0 0 0 0 0 0 0 0 0 -0 0 0 0 0 0 0 0 0 0 0 0 0 0 0 0 0 0 0 0 0 0 0
0 -0 -0 0 0 0 0 0 0 0 0 0 0 0 0 0 0 0 0 0 0 0 0 0 0 0 0 0 0 0 0 0 0 0 0 0 0 0 0 0 0 0 0 0 0
0 -0 -0 0 0 0 0 0 0 0 0 0 0 0 0 0 0 0 0 0 0 -0 -0 0 0 0 0 0 0 0 0 0 0 0 0 0 0 0 0 0 0 0 0 0 0
-0 -0 -0 0 0 0 0 0 0 0 0 0 0 0 0 -0 0 0 -0 0 -0 0 0 0 0 0 0 0 0 0 0 0 0 0 0 0 0 0 0 0 0 0 0 0 0
-0 -0 0 0 0 0 0 0 0 0 0 0 0 0 0 0 0 0 0 -0 -0 -0 0 0 0 0 0 0 0 0 0 0 0 0 0 0 0 0 0 0 0 0 0 0 0
-0 0 0 0 0 0 0 0 0 0 0 0 0 0 0 0 0 0 0 0 0 0 0 0 0 0 0 0 0 0 0 0 0 0 0 0 0 0 -0 0 0 0 0 0 0
0 0 0 0 0 0 0 0 0 0 0 0 0 0 0 0 0 0 0 0 -0 0 0 0 0 0 0 0 0 0 0 0 0 0 0 0 0 0 0 0 0 0 0 0 0
0 0 0 0 0 0 0 0 0 0 0 0 0 0 0 0 0 0 -0 -0 0 0 0 -0 0 0 0 0 0 0 0 0 0 0 0 0 0 0 0 0 0 0 0 0 0
0 0 0 0 0 0 0 0 0 0 0 0 0 0 0 0 0 0 0 0 -0 0 -0 -0 0 0 -0 0 0 0 0 0 0 0 0 0 0 0 0 0 0 0 0 0 1
0 0 0 0 0 0 0 0 0 0 0 0 0 0 0 0 0 0 0 0 -0 0 -0 -0 0 0 0 0 0 0 0 0 0 0 0 0 0 1 1 1 0 0 0 1 0
0 0 0 0 0 0 0 0 0 0 0 0 0 0 0 0 0 0 -0 0 -0 -0 0 0 0 0 0 0 0 0 0 0 0 0 0 0 1 1 1 1 1 0 0 -0 0
0 0 0 0 0 0 0 0 0 0 0 0 0 0 0 0 0 0 -0 0 0 -0 -0 0 0 0 0 0 0 0 0 -0 0 0 0 0 0 1 0 0 0 0 0 0 0
0 0 0 0 0 0 0 0 -0 0 0 0 0 0 0 0 0 0 -0 0 -0 -0 -0 -0 0 0 0 0 0 0 0 0 0 0 0 0 1 0 0 0 0 0 0 0 0
0 0 0 0 0 0 0 0 -0 -0 0 -0 0 0 0 0 0 -0 0 0 -0 0 -0 0 0 0 0 0 0 0 0 0 0 0 0 0 0 0 0 0 0 0 0 0 0
Wind_Speed_500mb
45 45 45 45 44 43 43 41 42 41 41 41 45 43 43 47 51 47 51 42 25 15 28 28 21 20 24 47 40 40 12 27 41 37 34 51 17 61 55 7 23 23 55 69 68
48 47 47 47 49 50 50 46 41 39 38 36 40 42 39 39 48 57 32 18 27 31 46 32 18 21 26 22 35 22 25 43 12 20 23 51 36 58 8 11 20 68 66 68 73
52 51 50 51 53 55 53 48 41 38 38 35 36 38 41 33 42 9 7 14 29 19 46 36 30 30 37 50 36 22 37 15 34 54 55 49 40 56 21 42 51 65 60 70 73
57 57 58 56 56 56 52 48 44 41 40 34 32 31 36 23 10 12 11 32 26 11 33 26 33 30 7 17 59 27 44 47 35 68 61 44 55 33 35 33 66 68 68 71 61
61 61 62 63 60 57 53 50 49 45 37 33 30 27 31 14 53 26 30 34 13 13 18 32 38 33 18 14 39 41 32 47 59 73 65 59 41 34 29 35 60 77 82 72 72
64 68 69 68 65 61 58 52 49 39 35 32 29 22 25 31 21 4 31 38 26 21 28 31 26 37 31 31 33 28 51 46 56 67 62 36 32 33 20 36 44 81 69 65 62
68 71 74 74 72 63 54 45 37 36 35 29 27 21 35 63 31 24 26 28 31 31 34 32 27 15 22 19 61 53 28 35 38 51 40 38 26 20 30 25 58 67 66 53 45
71 75 76 72 57 47 43 36 36 33 26 22 22 19 27 33 24 26 22 32 25 12 26 32 32 19 21 30 39 27 26 29 44 36 46 23 29 17 33 10 40 45 52 54 39
72 75 74 54 48 51 43 41 25 21 14 17 4 16 22 24 27 16 4 28 25 28 18 22 23 25 30 19 17 22 20 37 35 36 16 26 14 15 34 20 24 37 43 75 84
72 75 65 44 55 45 34 34 9 19 5 6 8 12 20 4 10 11 13 11 18 25 28 25 21 12 11 17 24 24 32 29 38 40 33 17 15 15 41 30 20 17 39 41 43
75 73 50 47 41 33 31 21 24 9 10 22 25 27 40 32 17 3 10 10 19 22 16 28 8 16 27 31 35 33 26 35 31 28 24 16 19 19 20 25 24 23 32 35 35
79 64 35 41 24 31 17 15 18 18 29 41 55 68 62 45 37 29 14 10 14 14 17 18 30 28 27 37 36 39 39 34 24 27 32 15 18 21 15 15 33 30 31 34 37
74 47 38 36 18 34 8 12 24 37 10 28 30 35 38 40 54 39 21 22 19 13 25 31 31 30 36 35 41 42 40 30 19 33 26 16 7 22 21 11 46 45 43 49 50
63 25 42 38 18 23 13 39 25 19 5 8 4 7 4 7 14 35 25 26 11 19 24 25 39 31 36 40 32 35 36 35 31 17 14 26 23 13 27 12 24 43 52 50 49
41 20 34 34 34 17 34 23 34 3 2 24 14 12 11 12 7 6 23 12 19 24 12 20 30 37 39 41 36 35 36 31 27 30 14 30 14 26 22 19 20 16 60 48 43
25 19 27 27 27 21 43 23 6 4 9 15 8 14 15 17 30 13 8 25 23 14 12 36 30 13 27 38 42 35 37 24 25 20 19 35 13 20 31 35 13 17 43 39 51
16 14 20 16 16 44 52 20 4 10 27 17 31 26 36 27 20 24 21 16 21 4 12 16 31 30 32 30 45 38 23 9 8 16 7 33 21 15 43 21 18 19 41 37 58
14 17 24 23 9 49 47 6 7 16 12 28 19 40 13 14 6 7 8 17 24 22 9 9 1 14 15 17 20 29 18 5 10 11 12 33 17 30 27 49 60 61 64 54 48
21 12 18 35 10 47 33 7 7 9 13 14 31 11 11 5 6 4 12 15 19 28 13 5 16 19 25 20 21 15 18 39 5 11 4 10 8 11 25 30 37 46 64 54 44
36 10 17 36 21 39 9 12 10 17 20 5 6 13 21 9 7 8 5 14 21 16 15 5 8 16 25 16 20 29 7 14 9 15 14 13 30 11 25 41 33 38 37 51 48
29 14 19 35 16 33 5 5 12 42 26 2 6 10 16 16 7 6 10 13 24 15 14 12 2 4 14 10 18 16 24 14 6 11 9 12 17 14 19 37 41 34 61 56 50
27 7 22 26 12 14 10 22 22 26 26 6 6 9 9 20 6 8 9 6 26 15 12 11 4 9 23 35 32 19 23 16 6 5 3 11 6 20 30 27 37 33 54 78 87
41 11 38 32 8 8 18 18 24 19 14 3 7 10 9 8 9 18 10 11 27 12 5 8 3 4 8 6 19 11 30 19 5 12 13 8 1 15 42 46 70 72 79 80 87
19 9 18 22 43 13 17 25 31 31 12 10 10 14 19 8 9 16 16 16 26 14 16 8 10 7 12 9 7 7 13 18 14 8 4 9 18 26 35 44 48 70 77 79 79
25 11 19 11 22 30 26 26 33 31 15 25 5 31 16 6 11 16 12 13 15 3 11 9 9 4 11 21 13 12 12 21 17 21 14 21 28 21 27 38 50 74 75 74 77
16 16 22 52 44 18 17 26 31 30 17 23 18 33 14 10 7 8 19 4 7 8 6 7 10 13 8 23 26 18 15 30 21 12 16 38 22 16 24 51 54 68 71 68 69
25 29 29 31 18 15 22 33 37 27 17 31 16 12 15 19 23 44 33 15 8 6 7 6 6 9 11 14 20 9 27 19 22 9 12 39 21 24 29 30 53 60 65 73 75
Wind_Direction_500mb
351 348 345 343 339 332 327 323 320 319 317 317 314 314 316 315 310 301 281 284 277 272 297 273 265 202 229 237 232 230 223 234 231 228 246 269 266 254 259 103 77 85 124 133 140
350 347 344 342 339 333 326 323 320 320 317 317 316 317 317 320 311 302 316 304 290 248 252 260 261 253 252 247 228 208 219 235 246 243 242 261 261 275 206 231 86 94 114 128 135
348 343 340 340 338 335 329 323 319 318 312 311 309 318 325 329 322 268 39 8 346 274 230 237 253 266 261 241 235 243 236 241 242 258 265 276 284 272 247 213 155 130 137 142 133
346 343 339 334 333 332 325 322 316 312 311 309 309 319 325 328 300 213 294 341 341 305 215 223 240 249 279 251 234 243 243 246 254 247 261 268 283 288 295 187 176 145 149 154 175
344 342 337 334 330 328 322 319 314 308 304 302 308 316 315 277 257 239 275 308 346 351 199 223 238 234 234 273 254 234 242 241 245 256 263 273 270 282 299 221 167 155 150 159 174
342 340 337 334 327 323 319 318 316 309 303 301 295 291 279 255 303 277 292 252 262 276 263 228 220 229 274 247 253 267 234 246 238 246 256 264 284 294 291 147 133 144 154 156 165
342 340 338 333 327 324 319 319 314 310 307 304 293 268 263 255 278 251 246 233 229 262 252 252 249 313 309 274 267 263 256 239 243 242 242 252 288 232 240 156 146 151 156 150 157
343 341 339 337 339 346 342 331 314 309 306 308 286 243 254 300 310 285 241 248 236 260 241 247 263 302 284 280 298 276 249 233 238 235 234 193 255 246 235 178 148 147 154 149 170
343 341 340 343 348 343 342 337 327 302 317 326 249 201 262 326 277 311 272 231 254 268 252 243 249 265 282 247 277 254 244 221 234 220 233 186 232 236 236 250 170 178 151 144 162
343 340 341 344 337 342 351 2 341 299 9 277 240 217 256 325 326 334 239 199 237 255 246 256 230 229 226 232 217 226 220 215 218 214 213 196 195 237 246 247 220 197 170 168 190
343 340 342 345 348 350 354 16 12 3 189 236 241 233 287 296 290 257 230 222 214 226 245 195 232 230 229 233 240 237 251 221 218 212 198 202 168 222 242 217 201 196 172 190 174
344 344 350 348 358 350 352 25 4 307 294 275 258 256 259 263 276 280 196 172 230 243 234 225 220 248 241 254 247 241 243 218 220 227 188 194 188 222 242 223 196 190 185 212 165
345 351 359 358 0 357 23 338 326 318 284 295 245 234 243 227 236 252 192 202 232 264 239 229 233 226 243 250 244 242 235 218 205 212 190 146 216 206 231 239 198 190 197 219 182
349 15 1 9 356 346 310 323 317 316 292 288 156 176 224 213 243 227 231 237 182 231 263 243 220 220 238 240 244 257 239 244 208 201 189 165 201 233 213 218 181 180 195 218 176
358 22 12 346 345 350 317 305 307 93 18 352 20 12 331 199 114 227 239 244 231 262 333 238 198 205 242 229 216 237 251 231 246 207 155 181 148 215 206 214 202 178 191 212 182
6 25 7 353 343 344 333 3 90 258 354 341 322 306 287 275 252 178 268 224 259 243 187 284 301 286 249 227 229 246 255 245 242 201 213 182 126 205 207 196 172 166 180 199 186
19 22 346 341 331 327 345 17 329 50 323 334 317 308 312 278 243 244 227 207 221 157 262 264 246 233 230 239 226 241 236 237 206 194 169 172 179 221 198 180 168 167 196 206 184
343 9 346 349 2 333 334 341 14 345 276 320 309 310 231 359 263 300 217 243 220 254 342 242 322 173 225 210 236 237 203 265 148 133 175 159 196 218 203 192 180 178 200 206 186
353 348 330 351 341 354 348 9 322 309 295 304 312 263 309 52 16 229 234 256 226 206 185 256 215 158 231 189 202 296 198 219 114 112 93 186 300 215 209 204 170 166 182 195 190
342 349 351 13 353 351 42 314 352 319 318 99 301 316 324 25 238 196 234 234 249 185 144 95 346 230 187 114 261 223 253 221 242 167 155 187 215 223 188 197 166 163 150 165 141
14 314 6 14 7 360 24 332 299 3 358 169 289 291 297 330 276 246 258 263 194 177 135 108 167 274 139 189 226 189 237 239 205 159 142 155 212 208 142 145 149 150 148 143 125
5 311 4 360 36 338 348 334 5 359 338 199 236 258 278 318 325 267 247 287 134 125 183 90 196 257 184 200 241 242 222 225 103 248 239 136 269 122 107 106 142 132 121 112 107
340 300 344 12 9 351 329 336 10 338 325 309 291 224 268 295 303 283 189 216 171 64 137 125 234 241 94 288 261 264 242 209 67 31 27 94 357 67 95 94 104 103 107 108 109
344 353 343 340 341 354 319 360 359 354 307 348 294 286 306 315 283 303 116 69 69 98 59 130 169 284 158 227 183 198 253 108 96 82 137 152 110 85 96 103 103 103 107 109 111
14 8 13 303 317 313 6 349 8 355 355 350 282 343 337 346 314 341 97 125 80 76 18 24 342 326 312 292 219 256 180 125 179 175 180 162 134 130 124 119 118 113 115 114 115
27 355 320 296 301 346 9 347 359 350 9 331 336 336 325 330 336 306 318 50 98 173 101 358 1 20 301 276 236 207 186 194 221 195 201 140 123 130 119 119 122 122 124 124 122
9 348 320 289 319 3 355 339 349 355 355 340 316 323 325 328 320 285 283 295 88 110 84 76 55 343 278 197 198 205 190 207 76 164 166 155 141 145 144 134 131 131 128 125 120
Wind_Speed_850mb
45 45 45 45 44 43 43 41 42 41 41 41 45 43 43 47 51 47 51 42 25 15 28 28 21 20 24 47 40 40 12 27 41 37 34 51 17 61 55 7 23 23 55 69 68
48 47 47 47 49 50 50 46 41 39 38 36 40 42 39 39 48 57 32 18 27 31 46 32 18 21 26 22 35 22 25 43 12 20 23 51 36 58 8 11 20 68 66 68 73
52 51 50 51 53 55 53 48 41 38 38 35 36 38 41 33 42 9 7 14 29 19 46 36 30 30 37 50 36 22 37 15 34 54 55 49 40 56 21 42 51 65 60 70 73
57 57 58 56 56 56 52 48 44 41 40 34 32 31 36 23 10 12 11 32 26 11 33 26 33 30 7 17 59 27 44 47 35 68 61 44 55 33 35 33 66 68 68 71 61
61 61 62 63 60 57 53 50 49 45 37 33 30 27 31 14 53 26 30 34 13 13 18 32 38 33 18 14 39 41 32 47 59 73 65 59 41 34 29 35 60 77 82 72 72
64 68 69 68 65 61 58 52 49 39 35 32 29 22 25 31 21 4 31 38 26 21 28 31 26 37 31 31 33 28 51 46 56 67 62 36 32 33 20 36 44 81 69 65 62
68 71 74 74 72 63 54 45 37 36 35 29 27 21 35 63 31 24 26 28 31 31 34 32 27 15 22 19 61 53 28 35 38 51 40 38 26 20 30 25 58 67 66 53 45
71 75 76 72 57 47 43 36 36 33 26 22 22 19 27 33 24 26 22 32 25 12 26 32 32 19 21 30 39 27 26 29 44 36 46 23 29 17 33 10 40 45 52 54 39
72 75 74 54 48 51 43 41 25 21 14 17 4 16 22 24 27 16 4 28 25 28 18 22 23 25 30 19 17 22 20 37 35 36 16 26 14 15 34 20 24 37 43 75 84
72 75 65 44 55 45 34 34 9 19 5 6 8 12 20 4 10 11 13 11 18 25 28 25 21 12 11 17 24 24 32 29 38 40 33 17 15 15 41 30 20 17 39 41 43
75 73 50 47 41 33 31 21 24 9 10 22 25 27 40 32 17 3 10 10 19 22 16 28 8 16 27 31 35 33 26 35 31 28 24 16 19 19 20 25 24 23 32 35 35
79 64 35 41 24 31 17 15 18 18 29 41 55 68 62 45 37 29 14 10 14 14 17 18 30 28 27 37 36 39 39 34 24 27 32 15 18 21 15 15 33 30 31 34 37
74 47 38 36 18 34 8 12 24 37 10 28 30 35 38 40 54 39 21 22 19 13 25 31 31 30 36 35 41 42 40 30 19 33 26 16 7 22 21 11 46 45 43 49 50
63 25 42 38 18 23 13 39 25 19 5 8 4 7 4 7 14 35 25 26 11 19 24 25 39 31 36 40 32 35 36 35 31 17 14 26 23 13 27 12 24 43 52 50 49
41 20 34 34 34 17 34 23 34 3 2 24 14 12 11 12 7 6 23 12 19 24 12 20 30 37 39 41 36 35 36 31 27 30 14 30 14 26 22 19 20 16 60 48 43
25 19 27 27 27 21 43 23 6 4 9 15 8 14 15 17 30 13 8 25 23 14 12 36 30 13 27 38 42 35 37 24 25 20 19 35 13 20 31 35 13 17 43 39 51
16 14 20 16 16 44 52 20 4 10 27 17 31 26 36 27 20 24 21 16 21 4 12 16 31 30 32 30 45 38 23 9 8 16 7 33 21 15 43 21 18 19 41 37 58
14 17 24 23 9 49 47 6 7 16 12 28 19 40 13 14 6 7 8 17 24 22 9 9 1 14 15 17 20 29 18 5 10 11 12 33 17 30 27 49 60 61 64 54 48
21 12 18 35 10 47 33 7 7 9 13 14 31 11 11 5 6 4 12 15 19 28 13 5 16 19 25 20 21 15 18 39 5 11 4 10 8 11 25 30 37 46 64 54 44
36 10 17 36 21 39 9 12 10 17 20 5 6 13 21 9 7 8 5 14 21 16 15 5 8 16 25 16 20 29 7 14 9 15 14 13 30 11 25 41 33 38 37 51 48
29 14 19 35 16 33 5 5 12 42 26 2 6 10 16 16 7 6 10 13 24 15 14 12 2 4 14 10 18 16 24 14 6 11 9 12 17 14 19 37 41 34 61 56 50
27 7 22 26 12 14 10 22 22 26 26 6 6 9 9 20 6 8 9 6 26 15 12 11 4 9 23 35 32 19 23 16 6 5 3 11 6 20 30 27 37 33 54 78 87
41 11 38 32 8 8 18 18 24 19 14 3 7 10 9 8 9 18 10 11 27 12 5 8 3 4 8 6 19 11 30 19 5 12 13 8 1 15 42 46 70 72 79 80 87
19 9 18 22 43 13 17 25 31 31 12 10 10 14 19 8 9 16 16 16 26 14 16 8 10 7 12 9 7 7 13 18 14 8 4 9 18 26 35 44 48 70 77 79 79
25 11 19 11 22 30 26 26 33 31 15 25 5 31 16 6 11 16 12 13 15 3 11 9 9 4 11 21 13 12 12 21 17 21 14 21 28 21 27 38 50 74 75 74 77
16 16 22 52 44 18 17 26 31 30 17 23 18 33 14 10 7 8 19 4 7 8 6 7 10 13 8 23 26 18 15 30 21 12 16 38 22 16 24 51 54 68 71 68 69
25 29 29 31 18 15 22 33 37 27 17 31 16 12 15 19 23 44 33 15 8 6 7 6 6 9 11 14 20 9 27 19 22 9 12 39 21 24 29 30 53 60 65 73 75
Wind_Direction_850mb
351 348 345 343 339 332 327 323 320 319 317 317 314 314 316 315 310 301 281 284 277 272 297 273 265 202 229 237 232 230 223 234 231 228 246 269 266 254 259 103 77 85 124 133 140
350 347 344 342 339 333 326 323 320 320 317 317 316 317 317 320 311 302 316 304 290 248 252 260 261 253 252 247 228 208 219 235 246 243 242 261 261 275 206 231 86 94 114 128 135
348 343 340 340 338 335 329 323 319 318 312 311 309 318 325 329 322 268 39 8 346 274 230 237 253 266 261 241 235 243 236 241 242 258 265 276 284 272 247 213 155 130 137 142 133
346 343 339 334 333 332 325 322 316 312 311 309 309 319 325 328 300 213 294 341 341 305 215 223 240 249 279 251 234 243 243 246 254 247 261 268 283 288 295 187 176 145 149 154 175
344 342 337 334 330 328 322 319 314 308 304 302 308 316 315 277 257 239 275 308 346 351 199 223 238 234 234 273 254 234 242 241 245 256 263 273 270 282 299 221 167 155 150 159 174
342 340 337 334 327 323 319 318 316 309 303 301 295 291 279 255 303 277 292 252 262 276 263 228 220 229 274 247 253 267 234 246 238 246 256 264 284 294 291 147 133 144 154 156 165
342 340 338 333 327 324 319 319 314 310 307 304 293 268 263 255 278 251 246 233 229 262 252 252 249 313 309 274 267 263 256 239 243 242 242 252 288 232 240 156 146 151 156 150 157
343 341 339 337 339 346 342 331 314 309 306 308 286 243 254 300 310 285 241 248 236 260 241 247 263 302 284 280 298 276 249 233 238 235 234 193 255 246 235 178 148 147 154 149 170
343 341 340 343 348 343 342 337 327 302 317 326 249 201 262 326 277 311 272 231 254 268 252 243 249 265 282 247 277 254 244 221 234 220 233 186 232 236 236 250 170 178 151 144 162
343 340 341 344 337 342 351 2 341 299 9 277 240 217 256 325 326 334 239 199 237 255 246 256 230 229 226 232 217 226 220 215 218 214 213 196 195 237 246 247 220 197 170 168 190
343 340 342 345 348 350 354 16 12 3 189 236 241 233 287 296 290 257 230 222 214 226 245 195 232 230 229 233 240 237 251 221 218 212 198 202 168 222 242 217 201 196 172 190 174
344 344 350 348 358 350 352 25 4 307 294 275 258 256 259 263 276 280 196 172 230 243 234 225 220 248 241 254 247 241 243 218 220 227 188 194 188 222 242 223 196 190 185 212 165
345 351 359 358 0 357 23 338 326 318 284 295 245 234 243 227 236 252 192 202 232 264 239 229 233 226 243 250 244 242 235 218 205 212 190 146 216 206 231 239 198 190 197 219 182
349 15 1 9 356 346 310 323 317 316 292 288 156 176 224 213 243 227 231 237 182 231 263 243 220 220 238 240 244 257 239 244 208 201 189 165 201 233 213 218 181 180 195 218 176
358 22 12 346 345 350 317 305 307 93 18 352 20 12 331 199 114 227 239 244 231 262 333 238 198 205 242 229 216 237 251 231 246 207 155 181 148 215 206 214 202 178 191 212 182
6 25 7 353 343 344 333 3 90 258 354 341 322 306 287 275 252 178 268 224 259 243 187 284 301 286 249 227 229 246 255 245 242 201 213 182 126 205 207 196 172 166 180 199 186
19 22 346 341 331 327 345 17 329 50 323 334 317 308 312 278 243 244 227 207 221 157 262 264 246 233 230 239 226 241 236 237 206 194 169 172 179 221 198 180 168 167 196 206 184
343 9 346 349 2 333 334 341 14 345 276 320 309 310 231 359 263 300 217 243 220 254 342 242 322 173 225 210 236 237 203 265 148 133 175 159 196 218 203 192 180 178 200 206 186
353 348 330 351 341 354 348 9 322 309 295 304 312 263 309 52 16 229 234 256 226 206 185 256 215 158 231 189 202 296 198 219 114 112 93 186 300 215 209 204 170 166 182 195 190
342 349 351 13 353 351 42 314 352 319 318 99 301 316 324 25 238 196 234 234 249 185 144 95 346 230 187 114 261 223 253 221 242 167 155 187 215 223 188 197 166 163 150 165 141
14 314 6 14 7 360 24 332 299 3 358 169 289 291 297 330 276 246 258 263 194 177 135 108 167 274 139 189 226 189 237 239 205 159 142 155 212 208 142 145 149 150 148 143 125
5 311 4 360 36 338 348 334 5 359 338 199 236 258 278 318 325 267 247 287 134 125 183 90 196 257 184 200 241 242 222 225 103 248 239 136 269 122 107 106 142 132 121 112 107
340 300 344 12 9 351 329 336 10 338 325 309 291 224 268 295 303 283 189 216 171 64 137 125 234 241 94 288 261 264 242 209 67 31 27 94 357 67 95 94 104 103 107 108 109
344 353 343 340 341 354 319 360 359 354 307 348 294 286 306 315 283 303 116 69 69 98 59 130 169 284 158 227 183 198 253 108 96 82 137 152 110 85 96 103 103 103 107 109 111
14 8 13 303 317 313 6 349 8 355 355 350 282 343 337 346 314 341 97 125 80 76 18 24 342 326 312 292 219 256 180 125 179 175 180 162 134 130 124 119 118 113 115 114 115
27 355 320 296 301 346 9 347 359 350 9 331 336 336 325 330 336 306 318 50 98 173 101 358 1 20 301 276 236 207 186 194 221 195 201 140 123 130 119 119 122 122 124 124 122
9 348 320 289 319 3 355 339 349 355 355 340 316 323 325 328 320 285 283 295 88 110 84 76 55 343 278 197 198 205 190 207 76 164 166 155 141 145 144 134 131 131 128 125 120